Tracking 29892 objects as of 21-Nov-2024
HD Live streaming from Space Station
objects crossing your sky now

FENGYUN 1C DEB

Track FENGYUN 1C DEB now!
10-day predictions


NORAD ID: 30450
Int'l Code: 1999-025AFM
Perigee: 566.8 km
Apogee: 853.5 km
Inclination: 98.1 °
Period: 98.8 minutes
Semi major axis: 7081 km
RCS: 0.024 m2 (small)
Launch date: May 10, 1999
Source: People's Republic of China (PRC)
Launch site: Taiyaun Space Center, China (TSC)

Note: This is SATELLITE DEBRIS
Your satellite tracking list
Your tracking list is empty




NASA's NSSDC Master Catalog

Two Line Element Set (TLE):
1 30450U 99025AFM 24325.95306991  .00008867  00000-0  14985-2 0  9993
2 30450  98.1040 343.1688 0202494 339.0541  63.9726 14.56959046939457
Source of the keplerian elements: AFSPC